Location: El Carrer d�Abaix
(41.5797°N, 2.1791°E)
Time: 00:51:00
(UTC+00:00)

STARLINK-1378 - Pass Details

Date: 02 October 2020
Orbit: 548 x 551 km, 53.0° (Epoch: 27 October)

Event Time Altitude Azimuth Distance (km) Brightness Sun altitude
Exits shadow 04:49:21 13° 300° (WNW) 1,644 5.6 -12.1°
Maximum altitude 04:51:56 21° 344° (NNW) 1,254 5.3 -11.6°
Drops below altitude 10° 04:55:10 10° 35° (NE) 1,828 6.9 -11.0°
Sets 04:57:50 0° 52° (NE) 2,724 8.2 -10.5°
